{"data":{"norad_id":58178,"intl_designator":"2023-167D","name":"STARLINK-30810","alt_names":[],"object_type":"PAYLOAD","status":"ACTIVE","operator":null,"country":"US","launch_date":"2023-10-30","launch_site_code":"AFETR","launch_vehicle":null,"mission":null,"orbit_class":"UNKNOWN","rcs_meters":null,"size_class":null,"mass_kg":null,"dimensions":null,"purposes":["comms"],"wikipedia_slug":null,"has_3d_model":false,"image_url":null,"decayed_at":null,"tle_current":{"epoch":"2026-09-20T23:00:25.587936Z","epoch_age_seconds":100786,"freshness":"FRESH","line1":"1 58178U 23167D   26263.95862949  .00000475  00000+0  26785-4 0  9996","line2":"2 58178  43.0015 120.2285 0001113 271.9091  88.1634 15.27579866160855","mean_motion":15.27579866,"eccentricity":0.0001113,"inclination_deg":43.0015,"raan_deg":120.2285,"arg_perigee_deg":271.9091,"mean_anomaly_deg":88.1634,"bstar":2.6785e-5,"rev_number":16085,"period_min":94.266756982774,"perigee_km":482.28584722674,"apogee_km":483.81314734104,"semimajor_km":6861.1864972839,"source":"CELESTRAK","updated_at":"2026-09-21T09:00:33.826435Z"}}}